TimePDT,TemperatureF,Dew PointF,Humidity,Sea Level PressureIn,VisibilityMPH,Wind Direction,Wind SpeedMPH,Gust SpeedMPH,PrecipitationIn,Events,Conditions,WindDirDegrees,DateUTC
12:58 AM,72.5,22.6,15,29.87,10.0,North,27.6,36.8,N/A,,Clear,360,2013-04-23 07:58:00
1:58 AM,70.5,23.5,17,29.87,10.0,North,21.9,36.8,0.01,,Clear,360,2013-04-23 08:58:00
2:58 AM,68.9,22.5,17,29.88,10.0,North,24.2,33.4,0.02,,Clear,360,2013-04-23 09:58:00
3:58 AM,66.9,21.0,17,29.87,10.0,North,21.9,36.8,N/A,,Clear,360,2013-04-23 10:58:00
4:58 AM,65.7,20.3,18,29.88,10.0,North,18.4,32.2,N/A,,Clear,350,2013-04-23 11:58:00
5:58 AM,64.2,18.9,18,29.89,10.0,North,16.1,24.2,N/A,,Clear,350,2013-04-23 12:58:00
6:58 AM,63.5,19.6,19,29.91,10.0,North,17.3,28.8,N/A,,Clear,360,2013-04-23 13:58:00
7:58 AM,65.7,19.9,17,29.93,10.0,North,20.7,29.9,N/A,,Clear,10,2013-04-23 14:58:00
8:58 AM,69.4,22.3,17,29.94,10.0,North,24.2,28.8,N/A,,Clear,350,2013-04-23 15:58:00
9:58 AM,72.0,20.7,14,29.93,10.0,North,24.2,34.5,N/A,,Clear,360,2013-04-23 16:58:00
10:58 AM,74.7,20.7,13,29.94,10.0,North,16.1,26.5,N/A,,Clear,360,2013-04-23 17:58:00
11:58 AM,76.8,21.7,13,29.93,10.0,North,24.2,33.4,N/A,,Clear,350,2013-04-23 18:58:00
12:58 PM,79.3,22.6,12,29.92,10.0,NNE,12.7,17.3,N/A,,Clear,20,2013-04-23 19:58:00
1:58 PM,80.4,24.6,13,29.90,10.0,NNE,11.5,-,N/A,,Clear,20,2013-04-23 20:58:00
2:58 PM,82.8,25.7,12,29.89,10.0,Variable,2.3,-,N/A,,Clear,0,2013-04-23 21:58:00
3:58 PM,84.0,26.6,12,29.86,10.0,ENE,3.5,-,N/A,,Clear,60,2013-04-23 22:58:00
4:58 PM,82.9,41.4,23,29.85,10.0,WSW,16.1,-,N/A,,Clear,250,2013-04-23 23:58:00
5:58 PM,79.2,43.3,28,29.85,10.0,WSW,16.1,-,N/A,,Clear,250,2013-04-24 00:58:00
7:58 PM,66.7,41.9,40,29.84,10.0,West,15.0,-,N/A,,Clear,260,2013-04-24 02:58:00
8:58 PM,60.6,40.1,47,29.85,10.0,WSW,10.4,-,N/A,,Clear,240,2013-04-24 03:58:00
9:58 PM,58.6,40.3,51,29.85,10.0,SW,15.0,-,N/A,,Clear,230,2013-04-24 04:58:00
10:58 PM,56.8,44.1,62,29.85,10.0,SW,12.7,-,N/A,,Clear,220,2013-04-24 05:58:00
11:58 PM,53.8,48.6,82,29.85,10.0,WSW,18.4,-,N/A,,Clear,240,2013-04-24 06:58:00